SCP
0 0 0 0 -0 0 -0 0 0 0 0 0 0 0 0 0 0 0 0 0 0 0 0 0 0 0 0 0 0 0 0 0 0 0 -0 0 0 0 0 0 0 0 0 0
0 0 0 0 0 -0 -0 0 0 0 0 0 0 0 0 0 0 0 0 0 0 0 0 0 0 0 0 0 0 0 0 0 0 0 0 0 0 0 0 0 0 0 0 0
0 0 0 0 0 -0 -0 0 0 0 0 0 0 0 0 0 0 0 0 0 0 0 0 0 0 0 0 0 0 0 0 0 0 0 0 0 0 0 0 0 0 0 0 0
0 0 0 0 0 0 0 0 0 0 0 0 0 0 0 0 0 0 0 0 0 0 0 0 0 0 0 0 0 0 0 0 0 0 0 0 0 0 0 0 0 0 0 0
0 0 0 0 0 0 0 0 0 0 0 0 0 0 0 0 0 0 0 0 0 0 0 0 0 0 0 0 0 0 0 0 0 0 0 0 0 0 0 0 0 0 0 0
0 0 0 0 0 0 0 0 0 0 0 0 0 0 0 0 0 0 0 0 0 0 0 0 0 0 0 0 0 0 0 0 0 0 0 0 0 0 0 0 0 0 0 0
0 0 0 0 0 0 0 0 0 0 0 0 0 0 0 0 0 0 0 0 0 0 0 0 0 0 0 0 0 0 0 0 0 0 0 0 0 0 0 0 0 0 0 0
0 0 0 0 0 0 0 0 0 0 0 0 0 0 0 0 0 0 0 0 0 0 0 0 0 0 0 0 0 0 0 0 0 0 0 0 0 0 0 0 0 0 0 0
0 0 0 0 0 0 0 0 0 0 0 0 0 0 0 0 0 0 0 0 0 0 0 0 0 0 0 0 0 0 0 0 0 0 0 0 0 0 0 0 0 0 0 0
0 0 0 0 0 0 0 0 0 0 0 0 0 0 0 0 0 0 0 0 0 0 0 0 0 0 0 0 0 0 0 0 0 0 0 0 0 0 0 0 0 0 0 0
0 0 0 0 0 0 0 0 0 0 0 0 0 0 0 0 0 0 0 0 0 0 0 0 0 0 0 0 -0 0 0 0 0 0 0 0 0 0 0 0 0 0 0 0
0 0 0 0 0 0 0 0 0 0 0 0 0 0 0 0 0 0 0 0 0 0 0 0 0 0 0 0 0 0 0 0 0 0 0 0 0 0 0 0 0 0 0 0
0 0 0 0 0 0 0 0 0 0 0 0 0 0 0 0 0 0 0 0 0 0 0 0 0 0 0 0 0 0 0 0 0 0 0 0 0 0 0 0 0 0 0 0
0 0 0 0 0 0 0 0 0 0 0 0 0 0 0 0 0 0 0 0 0 0 0 0 0 0 0 0 0 0 0 0 0 0 0 0 0 0 0 0 0 0 0 0
0 0 0 0 0 0 0 0 0 0 0 0 0 0 0 0 0 0 0 0 0 0 0 0 0 0 0 0 0 0 0 0 0 0 0 0 0 0 0 0 0 0 0 0
0 0 0 0 0 0 0 0 0 0 0 0 0 0 0 0 0 0 0 0 0 0 0 0 0 0 0 0 0 0 0 0 0 0 0 0 0 0 0 0 0 0 0 0
0 0 0 0 0 0 0 0 0 0 0 0 0 0 0 0 0 0 0 0 0 0 0 0 0 0 0 0 0 0 0 0 0 0 0 0 0 0 0 0 0 0 0 0
0 0 0 0 0 0 0 0 -0 0 0 0 0 0 0 0 0 0 0 0 0 0 0 0 0 0 0 0 0 0 0 0 0 0 0 0 0 0 0 0 0 0 0 0
0 0 0 0 0 0 0 0 0 0 0 0 0 0 0 0 0 0 0 0 0 0 0 0 0 0 0 0 0 0 0 0 0 0 0 0 0 0 0 0 0 0 0 0
0 0 0 0 0 0 0 0 0 0 0 0 0 0 0 0 0 0 0 0 0 0 0 0 0 0 0 0 0 0 0 0 0 0 0 0 0 0 0 0 0 0 0 0
0 0 0 0 0 0 0 0 0 0 0 0 0 0 0 0 0 0 0 0 0 0 0 0 0 0 0 0 0 0 0 0 0 0 0 0 0 0 0 0 0 0 0 0
0 0 0 0 0 0 0 0 0 0 0 0 0 0 0 0 0 0 0 0 0 0 0 0 0 0 0 0 0 0 0 0 0 0 0 0 0 0 0 0 0 0 0 0
0 0 0 0 0 0 0 0 0 0 0 0 0 0 0 0 0 0 0 0 0 0 0 0 0 0 0 0 0 0 0 0 0 0 0 0 0 0 0 0 0 0 0 0
0 0 0 0 0 0 0 0 -0 0 0 0 0 0 0 0 0 0 0 0 0 0 0 0 0 0 0 0 0 0 0 0 0 0 0 0 0 0 0 0 0 0 0 0
0 0 0 -0 0 -0 0 0 0 -0 -0 0 0 0 0 0 0 0 0 0 0 0 0 0 0 0 0 0 0 0 0 0 0 0 0 0 0 0 0 0 0 0 0 0
0 0 0 0 0 0 0 0 -0 -0 -0 -0 0 0 0 0 0 0 0 0 0 0 0 0 0 0 0 0 0 0 0 0 0 0 0 0 0 0 0 -0 0 0 0 0
0 0 -0 -0 -0 0 0 0 -0 -0 -0 0 0 0 0 0 0 0 0 0 0 0 0 0 0 0 0 0 0 0 0 0 0 0 0 0 0 0 0 0 0 0 0 0
Wind_Speed_500mb
49 43 42 48 57 63 64 25 9 2 8 10 11 15 12 16 46 57 14 5 7 10 17 16 11 9 9 23 29 13 7 6 5 13 19 9 9 1 9 9 8 6 10 10
45 43 41 41 49 57 68 45 20 19 8 4 11 26 34 45 40 40 17 14 9 10 14 8 7 8 17 27 9 6 3 1 3 11 12 9 5 3 8 6 7 10 9 11
44 42 40 35 34 40 49 17 7 19 16 15 19 20 24 29 41 29 31 12 15 13 11 7 4 10 12 23 21 23 13 5 6 10 6 9 10 9 15 10 7 9 12 16
41 39 39 33 27 28 36 8 7 24 9 19 32 25 24 25 20 22 39 9 15 13 11 8 11 16 14 27 30 10 10 5 2 16 17 21 24 24 20 10 12 11 17 15
32 30 34 24 25 19 22 11 15 32 38 30 30 18 11 24 15 10 15 8 37 17 9 11 10 6 5 9 12 11 7 5 4 9 21 24 27 24 23 16 14 19 17 7
27 25 25 24 22 17 7 17 23 18 19 16 13 14 24 23 23 6 25 16 8 23 21 28 30 32 28 12 9 6 14 9 6 8 12 24 17 12 18 18 14 9 11 11
23 24 22 23 22 17 16 17 17 13 12 15 21 37 46 36 9 5 18 13 4 16 15 2 18 25 22 14 8 11 6 4 3 5 7 9 14 13 23 5 24 24 18 23
23 24 26 27 28 21 22 19 9 11 13 26 36 35 40 48 30 3 14 5 12 12 18 4 9 9 11 3 7 8 14 9 2 5 7 18 28 15 9 7 10 16 19 19
23 24 28 29 28 27 27 26 17 22 17 14 34 41 47 19 15 11 28 34 37 41 10 8 3 6 8 9 9 30 17 10 10 6 5 6 3 4 16 9 5 27 36 26
29 30 28 22 24 30 28 31 20 23 28 48 42 27 25 37 26 8 17 4 15 31 11 15 14 13 11 15 18 7 3 3 13 8 8 10 14 25 13 9 7 9 17 23
25 24 22 18 22 26 25 22 19 20 22 61 60 49 44 45 30 8 34 12 7 6 6 9 9 10 19 18 31 15 11 10 6 2 4 14 12 10 9 4 30 33 22 24
25 26 26 22 22 28 20 26 7 18 32 49 52 60 54 48 38 36 23 19 20 12 4 7 6 9 2 3 8 6 9 13 12 14 12 21 14 9 34 22 19 20 11 19
22 21 21 21 22 21 22 27 20 19 24 47 42 45 35 46 54 35 15 5 15 4 11 11 7 5 4 7 5 12 8 11 7 6 9 23 30 19 19 18 16 16 14 17
22 21 19 19 20 22 20 26 16 14 19 15 21 21 30 18 44 45 46 47 27 23 21 10 3 3 13 5 6 6 2 10 5 3 7 25 31 25 26 23 20 16 14 18
23 21 20 20 19 17 20 25 22 17 24 11 34 63 30 19 10 34 36 32 27 18 9 6 5 7 8 7 4 5 5 5 5 6 20 13 24 28 17 11 9 12 12 15
24 22 21 21 20 17 9 7 4 21 14 10 7 21 25 28 23 30 28 30 28 20 8 8 9 22 8 2 3 6 14 29 15 12 27 19 11 13 7 4 3 12 15 16
20 19 17 21 19 21 20 10 10 10 16 8 10 12 18 31 32 26 27 32 24 21 12 13 12 22 19 6 8 20 29 20 10 10 13 7 13 13 15 8 7 12 12 16
20 21 18 19 20 28 32 32 36 17 16 9 7 9 10 12 29 20 35 23 27 15 17 10 16 13 7 6 10 26 31 23 10 6 15 17 16 12 17 23 11 14 16 13
17 17 18 19 14 12 16 21 20 18 14 6 8 7 4 9 11 24 29 29 7 13 9 9 5 8 10 12 20 28 26 21 10 11 15 21 31 36 30 26 19 19 16 17
19 13 8 8 9 19 7 8 5 8 13 15 9 16 8 0 7 8 11 23 8 7 12 20 8 8 27 29 23 21 17 44 16 8 15 36 38 38 31 26 21 16 14 10
6 8 10 7 9 13 8 7 9 10 8 15 22 43 17 5 3 4 9 8 7 9 8 11 9 8 28 52 45 26 23 19 16 15 24 34 36 36 31 23 18 11 5 7
7 8 9 16 10 6 5 6 9 11 9 22 24 33 43 13 7 2 3 5 7 9 11 8 4 8 34 20 32 39 24 25 32 33 43 40 33 28 24 20 13 6 4 2
8 10 5 5 7 9 10 11 9 8 8 9 11 13 24 10 8 4 4 5 10 17 6 6 4 23 45 41 37 36 37 41 47 42 37 34 30 23 21 18 11 12 6 9
4 4 5 9 9 11 9 8 1 7 15 38 39 16 8 9 5 5 6 8 8 3 8 9 9 48 54 47 45 43 45 51 48 39 31 29 25 18 15 10 9 7 4 9
6 7 8 12 16 21 18 18 7 7 16 20 4 10 7 5 5 6 5 7 7 7 6 2 35 60 57 53 52 52 50 50 46 37 33 27 19 16 21 6 11 7 6 6
9 12 11 3 7 14 16 9 4 5 7 17 7 4 4 4 6 10 10 6 7 3 6 31 45 46 39 63 59 55 49 42 34 31 21 17 14 16 8 6 10 4 5 6
10 15 28 38 25 21 21 17 5 4 5 2 1 5 6 6 7 7 7 4 7 18 25 16 24 45 52 54 56 48 42 37 31 29 20 20 12 7 5 5 6 6 4 5
Wind_Direction_500mb
319 317 328 335 337 341 350 4 298 55 120 164 217 240 251 247 276 287 290 16 283 286 307 291 278 271 193 150 133 162 148 134 265 272 298 166 129 269 127 123 266 191 157 261
311 314 318 328 337 343 345 336 277 282 274 275 246 265 271 258 259 270 242 183 235 244 280 302 315 326 110 132 110 106 122 0 346 298 326 30 60 307 237 184 123 204 147 261
301 304 312 322 332 341 340 330 308 344 309 298 339 315 297 292 292 312 247 193 201 256 269 262 295 299 134 145 113 99 81 107 159 204 295 300 293 268 256 201 143 224 220 259
299 301 304 316 320 330 334 287 333 2 329 331 317 304 309 309 318 350 358 328 206 232 225 247 253 253 129 105 148 102 108 157 318 294 306 308 299 296 282 260 235 179 242 249
298 301 306 320 315 317 313 306 342 332 302 311 322 309 282 299 294 314 296 323 315 272 212 207 249 343 43 134 236 127 125 203 209 291 301 292 289 281 281 277 268 265 267 138
296 300 306 314 317 331 325 308 313 342 292 297 281 273 302 309 303 8 348 336 11 8 11 64 79 85 85 71 119 119 141 154 170 242 303 322 306 276 297 286 243 76 355 117
295 298 290 293 298 299 296 319 328 292 289 306 301 313 309 306 344 2 356 357 312 346 342 328 49 51 60 51 61 123 120 101 143 248 306 254 249 266 282 52 51 36 56 74
293 289 283 282 289 277 277 287 308 289 292 306 293 323 331 324 298 247 270 115 335 338 319 356 19 350 21 349 260 218 185 158 209 187 232 281 306 327 17 90 68 18 49 49
289 288 281 282 292 283 275 269 276 274 286 246 278 322 307 310 350 294 261 225 254 266 348 360 100 176 32 324 303 242 217 168 162 207 254 270 269 12 56 67 68 8 17 35
289 293 296 296 288 291 288 276 232 271 286 272 281 298 314 321 314 276 302 46 158 174 182 227 211 237 168 217 243 266 97 166 191 192 205 265 356 6 347 71 322 191 93 46
297 295 287 286 288 294 295 276 214 247 270 277 280 288 307 314 335 355 318 339 15 149 215 213 198 201 216 215 260 171 184 166 193 108 264 248 353 45 98 220 33 22 36 32
297 294 293 283 279 290 284 280 180 265 272 260 280 277 276 258 260 294 302 299 303 23 305 256 217 238 89 284 234 260 213 192 169 166 198 171 209 190 154 182 184 161 45 17
304 300 301 293 278 284 278 272 264 303 303 298 273 275 279 258 249 241 253 66 9 13 338 288 276 249 169 187 200 26 20 88 104 100 134 180 194 205 194 215 152 95 40 1
299 292 292 301 292 293 280 274 242 270 285 278 285 289 288 285 245 235 225 243 282 287 311 294 314 332 352 40 52 129 186 60 76 27 112 120 172 118 111 96 76 54 17 29
303 290 278 287 283 293 290 278 242 203 280 304 299 304 249 234 258 210 228 237 247 275 289 221 243 284 354 329 26 299 85 195 122 151 111 99 98 113 109 79 17 2 54 21
284 289 274 267 269 268 302 305 37 234 243 271 276 314 287 237 246 214 212 223 236 222 250 249 255 262 285 274 230 257 296 55 78 115 113 130 152 133 90 346 224 93 39 88
281 288 263 266 266 252 221 240 279 238 194 242 266 254 252 230 203 205 219 224 218 213 223 216 248 280 293 199 215 280 302 344 36 142 145 177 226 170 153 154 69 111 47 56
276 273 263 268 275 255 259 251 271 299 225 226 261 263 281 224 197 186 210 203 207 222 232 245 202 252 251 237 191 248 268 282 292 301 217 194 206 172 139 142 135 95 77 41
270 259 264 274 257 233 243 238 256 264 234 230 265 279 270 301 250 199 191 203 180 224 192 222 222 193 216 178 218 245 248 260 229 246 261 216 195 139 127 128 105 101 76 50
258 246 265 238 235 227 204 213 229 219 214 224 248 276 267 197 300 240 183 197 215 194 210 190 204 245 238 246 252 228 248 230 179 177 97 110 101 113 111 99 100 78 60 44
243 224 228 239 240 171 210 205 206 199 236 220 224 234 256 259 125 324 3 298 206 185 229 176 202 198 224 233 236 233 210 203 205 161 130 116 126 120 119 107 98 101 82 27
245 249 237 201 186 187 229 212 212 211 239 209 209 212 201 185 212 18 167 295 284 217 176 128 272 200 216 186 211 198 163 144 135 138 124 119 113 114 113 116 115 103 49 316
268 204 223 204 173 227 226 210 202 213 270 315 219 179 170 124 132 350 249 247 249 140 121 196 228 128 138 129 125 123 127 125 122 123 124 121 118 123 118 109 83 65 38 340
240 246 230 224 194 237 220 298 267 277 319 328 316 119 123 118 108 127 274 239 288 233 197 194 151 134 134 133 134 134 134 133 132 124 125 129 133 115 132 135 97 150 97 13
239 243 247 227 281 324 307 280 237 256 344 329 190 125 178 71 133 239 252 260 242 222 197 113 133 143 142 141 143 140 131 134 132 136 139 135 119 140 157 140 12 77 97 23
220 234 262 196 315 314 329 314 296 179 7 12 6 44 69 163 193 209 210 224 220 76 40 119 134 137 148 146 141 143 142 142 139 140 143 142 144 158 140 59 13 40 60 25
225 236 246 251 285 264 271 303 30 65 76 74 6 216 204 264 195 216 214 312 87 87 82 97 130 134 129 138 137 137 145 149 149 145 157 145 159 172 188 154 283 345 203 287
Wind_Speed_850mb
49 43 42 48 57 63 64 25 9 2 8 10 11 15 12 16 46 57 14 5 7 10 17 16 11 9 9 23 29 13 7 6 5 13 19 9 9 1 9 9 8 6 10 10
45 43 41 41 49 57 68 45 20 19 8 4 11 26 34 45 40 40 17 14 9 10 14 8 7 8 17 27 9 6 3 1 3 11 12 9 5 3 8 6 7 10 9 11
44 42 40 35 34 40 49 17 7 19 16 15 19 20 24 29 41 29 31 12 15 13 11 7 4 10 12 23 21 23 13 5 6 10 6 9 10 9 15 10 7 9 12 16
41 39 39 33 27 28 36 8 7 24 9 19 32 25 24 25 20 22 39 9 15 13 11 8 11 16 14 27 30 10 10 5 2 16 17 21 24 24 20 10 12 11 17 15
32 30 34 24 25 19 22 11 15 32 38 30 30 18 11 24 15 10 15 8 37 17 9 11 10 6 5 9 12 11 7 5 4 9 21 24 27 24 23 16 14 19 17 7
27 25 25 24 22 17 7 17 23 18 19 16 13 14 24 23 23 6 25 16 8 23 21 28 30 32 28 12 9 6 14 9 6 8 12 24 17 12 18 18 14 9 11 11
23 24 22 23 22 17 16 17 17 13 12 15 21 37 46 36 9 5 18 13 4 16 15 2 18 25 22 14 8 11 6 4 3 5 7 9 14 13 23 5 24 24 18 23
23 24 26 27 28 21 22 19 9 11 13 26 36 35 40 48 30 3 14 5 12 12 18 4 9 9 11 3 7 8 14 9 2 5 7 18 28 15 9 7 10 16 19 19
23 24 28 29 28 27 27 26 17 22 17 14 34 41 47 19 15 11 28 34 37 41 10 8 3 6 8 9 9 30 17 10 10 6 5 6 3 4 16 9 5 27 36 26
29 30 28 22 24 30 28 31 20 23 28 48 42 27 25 37 26 8 17 4 15 31 11 15 14 13 11 15 18 7 3 3 13 8 8 10 14 25 13 9 7 9 17 23
25 24 22 18 22 26 25 22 19 20 22 61 60 49 44 45 30 8 34 12 7 6 6 9 9 10 19 18 31 15 11 10 6 2 4 14 12 10 9 4 30 33 22 24
25 26 26 22 22 28 20 26 7 18 32 49 52 60 54 48 38 36 23 19 20 12 4 7 6 9 2 3 8 6 9 13 12 14 12 21 14 9 34 22 19 20 11 19
22 21 21 21 22 21 22 27 20 19 24 47 42 45 35 46 54 35 15 5 15 4 11 11 7 5 4 7 5 12 8 11 7 6 9 23 30 19 19 18 16 16 14 17
22 21 19 19 20 22 20 26 16 14 19 15 21 21 30 18 44 45 46 47 27 23 21 10 3 3 13 5 6 6 2 10 5 3 7 25 31 25 26 23 20 16 14 18
23 21 20 20 19 17 20 25 22 17 24 11 34 63 30 19 10 34 36 32 27 18 9 6 5 7 8 7 4 5 5 5 5 6 20 13 24 28 17 11 9 12 12 15
24 22 21 21 20 17 9 7 4 21 14 10 7 21 25 28 23 30 28 30 28 20 8 8 9 22 8 2 3 6 14 29 15 12 27 19 11 13 7 4 3 12 15 16
20 19 17 21 19 21 20 10 10 10 16 8 10 12 18 31 32 26 27 32 24 21 12 13 12 22 19 6 8 20 29 20 10 10 13 7 13 13 15 8 7 12 12 16
20 21 18 19 20 28 32 32 36 17 16 9 7 9 10 12 29 20 35 23 27 15 17 10 16 13 7 6 10 26 31 23 10 6 15 17 16 12 17 23 11 14 16 13
17 17 18 19 14 12 16 21 20 18 14 6 8 7 4 9 11 24 29 29 7 13 9 9 5 8 10 12 20 28 26 21 10 11 15 21 31 36 30 26 19 19 16 17
19 13 8 8 9 19 7 8 5 8 13 15 9 16 8 0 7 8 11 23 8 7 12 20 8 8 27 29 23 21 17 44 16 8 15 36 38 38 31 26 21 16 14 10
6 8 10 7 9 13 8 7 9 10 8 15 22 43 17 5 3 4 9 8 7 9 8 11 9 8 28 52 45 26 23 19 16 15 24 34 36 36 31 23 18 11 5 7
7 8 9 16 10 6 5 6 9 11 9 22 24 33 43 13 7 2 3 5 7 9 11 8 4 8 34 20 32 39 24 25 32 33 43 40 33 28 24 20 13 6 4 2
8 10 5 5 7 9 10 11 9 8 8 9 11 13 24 10 8 4 4 5 10 17 6 6 4 23 45 41 37 36 37 41 47 42 37 34 30 23 21 18 11 12 6 9
4 4 5 9 9 11 9 8 1 7 15 38 39 16 8 9 5 5 6 8 8 3 8 9 9 48 54 47 45 43 45 51 48 39 31 29 25 18 15 10 9 7 4 9
6 7 8 12 16 21 18 18 7 7 16 20 4 10 7 5 5 6 5 7 7 7 6 2 35 60 57 53 52 52 50 50 46 37 33 27 19 16 21 6 11 7 6 6
9 12 11 3 7 14 16 9 4 5 7 17 7 4 4 4 6 10 10 6 7 3 6 31 45 46 39 63 59 55 49 42 34 31 21 17 14 16 8 6 10 4 5 6
10 15 28 38 25 21 21 17 5 4 5 2 1 5 6 6 7 7 7 4 7 18 25 16 24 45 52 54 56 48 42 37 31 29 20 20 12 7 5 5 6 6 4 5
Wind_Direction_850mb
319 317 328 335 337 341 350 4 298 55 120 164 217 240 251 247 276 287 290 16 283 286 307 291 278 271 193 150 133 162 148 134 265 272 298 166 129 269 127 123 266 191 157 261
311 314 318 328 337 343 345 336 277 282 274 275 246 265 271 258 259 270 242 183 235 244 280 302 315 326 110 132 110 106 122 0 346 298 326 30 60 307 237 184 123 204 147 261
301 304 312 322 332 341 340 330 308 344 309 298 339 315 297 292 292 312 247 193 201 256 269 262 295 299 134 145 113 99 81 107 159 204 295 300 293 268 256 201 143 224 220 259
299 301 304 316 320 330 334 287 333 2 329 331 317 304 309 309 318 350 358 328 206 232 225 247 253 253 129 105 148 102 108 157 318 294 306 308 299 296 282 260 235 179 242 249
298 301 306 320 315 317 313 306 342 332 302 311 322 309 282 299 294 314 296 323 315 272 212 207 249 343 43 134 236 127 125 203 209 291 301 292 289 281 281 277 268 265 267 138
296 300 306 314 317 331 325 308 313 342 292 297 281 273 302 309 303 8 348 336 11 8 11 64 79 85 85 71 119 119 141 154 170 242 303 322 306 276 297 286 243 76 355 117
295 298 290 293 298 299 296 319 328 292 289 306 301 313 309 306 344 2 356 357 312 346 342 328 49 51 60 51 61 123 120 101 143 248 306 254 249 266 282 52 51 36 56 74
293 289 283 282 289 277 277 287 308 289 292 306 293 323 331 324 298 247 270 115 335 338 319 356 19 350 21 349 260 218 185 158 209 187 232 281 306 327 17 90 68 18 49 49
289 288 281 282 292 283 275 269 276 274 286 246 278 322 307 310 350 294 261 225 254 266 348 360 100 176 32 324 303 242 217 168 162 207 254 270 269 12 56 67 68 8 17 35
289 293 296 296 288 291 288 276 232 271 286 272 281 298 314 321 314 276 302 46 158 174 182 227 211 237 168 217 243 266 97 166 191 192 205 265 356 6 347 71 322 191 93 46
297 295 287 286 288 294 295 276 214 247 270 277 280 288 307 314 335 355 318 339 15 149 215 213 198 201 216 215 260 171 184 166 193 108 264 248 353 45 98 220 33 22 36 32
297 294 293 283 279 290 284 280 180 265 272 260 280 277 276 258 260 294 302 299 303 23 305 256 217 238 89 284 234 260 213 192 169 166 198 171 209 190 154 182 184 161 45 17
304 300 301 293 278 284 278 272 264 303 303 298 273 275 279 258 249 241 253 66 9 13 338 288 276 249 169 187 200 26 20 88 104 100 134 180 194 205 194 215 152 95 40 1
299 292 292 301 292 293 280 274 242 270 285 278 285 289 288 285 245 235 225 243 282 287 311 294 314 332 352 40 52 129 186 60 76 27 112 120 172 118 111 96 76 54 17 29
303 290 278 287 283 293 290 278 242 203 280 304 299 304 249 234 258 210 228 237 247 275 289 221 243 284 354 329 26 299 85 195 122 151 111 99 98 113 109 79 17 2 54 21
284 289 274 267 269 268 302 305 37 234 243 271 276 314 287 237 246 214 212 223 236 222 250 249 255 262 285 274 230 257 296 55 78 115 113 130 152 133 90 346 224 93 39 88
281 288 263 266 266 252 221 240 279 238 194 242 266 254 252 230 203 205 219 224 218 213 223 216 248 280 293 199 215 280 302 344 36 142 145 177 226 170 153 154 69 111 47 56
276 273 263 268 275 255 259 251 271 299 225 226 261 263 281 224 197 186 210 203 207 222 232 245 202 252 251 237 191 248 268 282 292 301 217 194 206 172 139 142 135 95 77 41
270 259 264 274 257 233 243 238 256 264 234 230 265 279 270 301 250 199 191 203 180 224 192 222 222 193 216 178 218 245 248 260 229 246 261 216 195 139 127 128 105 101 76 50
258 246 265 238 235 227 204 213 229 219 214 224 248 276 267 197 300 240 183 197 215 194 210 190 204 245 238 246 252 228 248 230 179 177 97 110 101 113 111 99 100 78 60 44
243 224 228 239 240 171 210 205 206 199 236 220 224 234 256 259 125 324 3 298 206 185 229 176 202 198 224 233 236 233 210 203 205 161 130 116 126 120 119 107 98 101 82 27
245 249 237 201 186 187 229 212 212 211 239 209 209 212 201 185 212 18 167 295 284 217 176 128 272 200 216 186 211 198 163 144 135 138 124 119 113 114 113 116 115 103 49 316
268 204 223 204 173 227 226 210 202 213 270 315 219 179 170 124 132 350 249 247 249 140 121 196 228 128 138 129 125 123 127 125 122 123 124 121 118 123 118 109 83 65 38 340
240 246 230 224 194 237 220 298 267 277 319 328 316 119 123 118 108 127 274 239 288 233 197 194 151 134 134 133 134 134 134 133 132 124 125 129 133 115 132 135 97 150 97 13
239 243 247 227 281 324 307 280 237 256 344 329 190 125 178 71 133 239 252 260 242 222 197 113 133 143 142 141 143 140 131 134 132 136 139 135 119 140 157 140 12 77 97 23
220 234 262 196 315 314 329 314 296 179 7 12 6 44 69 163 193 209 210 224 220 76 40 119 134 137 148 146 141 143 142 142 139 140 143 142 144 158 140 59 13 40 60 25
225 236 246 251 285 264 271 303 30 65 76 74 6 216 204 264 195 216 214 312 87 87 82 97 130 134 129 138 137 137 145 149 149 145 157 145 159 172 188 154 283 345 203 287